This is the latest recevied weather packets stored in our database for station/object PY2FGD-15. If no packets are shown the sender has not sent any weather packets the latest 10 day(s).
| Time | Temp. | Humidity | Pressure | Rain* | Wind** | Luminosity | Snow |
|---|---|---|---|---|---|---|---|
| 1777443003 | 18.33° C | 97% | 1015 hPa | 2.54 mm | - | - | - |
| 1777441204 | 15.56° C | 95% | 1015 hPa | 2.54 mm | - | - | - |
| 1777440004 | 16.11° C | 95% | 1016 hPa | 2.54 mm | - | - | - |
| 1777432803 | 16.11° C | 94% | 1017 hPa | 2.54 mm | - | - | - |
| 1777432205 | 16.67° C | 94% | 1017 hPa | 2.54 mm | - | - | - |
| 1777426804 | 15.56° C | 91% | 1017 hPa | 2.54 mm | - | - | - |
| 1777424403 | 17.22° C | 91% | 1017 hPa | 2.54 mm | - | - | - |
| 1777423805 | 17.78° C | 91% | 1017 hPa | 2.54 mm | - | - | - |
| 1777420804 | 19.44° C | 91% | 1017 hPa | 2.54 mm | - | - | - |
| 1777420204 | 15° C | 85% | 1017 hPa | 2.54 mm | - | - | - |
| 1777417803 | 16.11° C | 85% | 1016 hPa | 2.54 mm | - | - | - |
| 1777414803 | 17.22° C | 85% | 1016 hPa | 2.54 mm | - | - | - |
| 1777407003 | 21.11° C | 85% | 1015 hPa | 2.54 mm | - | - | - |
| 1777405203 | 21.67° C | 85% | 1015 hPa | 2.54 mm | - | - | - |
| 1777403403 | 22.78° C | 80% | 1014 hPa | 2.54 mm | - | - | - |
| 1777402803 | 22.78° C | 80% | 1014 hPa | 2.54 mm | - | - | - |
| 1777397404 | 23.33° C | 77% | 1014 hPa | 2.54 mm | - | - | - |
| 1777392604 | 23.33° C | 76% | 1014 hPa | 2.54 mm | - | - | - |
| 1777389005 | 22.78° C | 76% | 1015 hPa | 2.54 mm | - | - | - |
| 1777384805 | 22.78° C | 77% | 1016 hPa | 2.54 mm | - | - | - |
| 1777380003 | 22.78° C | 78% | 1017 hPa | 2.54 mm | - | - | - |
| 1777379406 | 22.78° C | 78% | 1017 hPa | 2.54 mm | - | - | - |
| 1777378803 | 22.78° C | 78% | 1017 hPa | 2.54 mm | - | - | - |
| 1777377606 | 22.78° C | 78% | 1017 hPa | 2.54 mm | - | - | - |
| 1777362603 | 15° C | 94% | 1015 hPa | 2.54 mm | - | - | - |
* Rain latest hour (hover to see other rain measurements)
** Current wind speed in m/s (hover to see current wind gust speed)